STARLINK-1927 (47181 NORAD) Tracking and Keplerian Element Data

This shows tracking and keplerian element data for the satellite.

Feedback or suggestion? Click here.




ElementValue
Catalog47181
NameSTARLINK-1927
Epoch Orbit891
Epoch Day16.16667824
Epoch Year2021
RAAN97.3733
Inclination53.0546
Eccentricity0.0001132
Argument of Perigee41.1205
Mean Anonmoly307.6931
Mean Motion15.62787921
Decay Rate-0.00014474
L11 47181U 20088BM 21016.16667824 -.00014474 00000-0 -15232-3 0 9997
L22 47181 53.0546 97.3733 0001132 41.1205 307.6931 15.62787921 8913

Live tracking and technical data element details for STARLINK-1927 (NORAD 47181). STARLINK-1927 can be tracked NOW for your location showing map with azimuth and elevation plus other details from your city location.

Track the satellite on the map from your city or location and see movement details for azimuth, elevation, latitude, longitude, range, height, and movement on the map or in text.







IsCatalogInMostPopularTable: catalog: 47181, numindb: 26
Update: records affected: 1



GetName: 47181 STARLINK-1927

Hit Count: updated at: Sun, 17 Jan 2021 08:19:38 GMT